Regional Weather Roundup
Issued by NWS

Home | Current Version | Previous Version | Graphics & Text | Print | Product List | Glossary On
Versions: 1 2 3 4 5 6 7 8 9 10 11 12 13 14 15 16 17 18 19 20 21 22 23 24 25 26 27 28 29 30 31 32 33 34 35 36 37 38 39 40 41 42 43 44 45 46 47 48 49 50
000
ASUS43 KFSD 201002
RWRSD

WEATHER ROUNDUP FOR SOUTH DAKOTA
NATIONAL WEATHER SERVICE SIOUX FALLS SD
400 AM CST FRI JAN 20 2017

NOTE: "FAIR" INDICATES FEW OR NO CLOUDS BELOW 12,000 FEET WITH NO
SIGNIFICANT WEATHER AND/OR OBSTRUCTIONS TO VISIBILITY.


SDZ001>005-009-010-012>017-201100-
NORTHWEST AND NORTH CENTRAL SOUTH DAKOTA

CITY           SKY/WX    TMP DP  RH WIND       PRES   REMARKS
BUFFALO          N/A     26  19  74 NW18      29.33F WCI  13
FAITH            N/A     17  14  88 NW13      29.37F WCI   4
MOBRIDGE       FOG       25  21  85 NW5       29.39F VSB 1/2 WCI  19
$$

SDZ012>016-024>037-041>051-057-063-072>074-201100-
SOUTHWEST AND SOUTH CENTRAL SOUTH DAKOTA

CITY           SKY/WX    TMP DP  RH WIND       PRES   REMARKS
RAPID CTY ARPT CLOUDY    27  19  72 NW9       29.38F WCI  18
PIERRE         FOG       21  20  96 W5        29.41F VSB 1/4 WCI  15
CUSTER         CLOUDY    26  17  68 CALM      29.38F
ELLSWORTH AFB  CLOUDY    32  21  64 N12       29.38S WCI  23
PHILIP         CLEAR     15  13  91 W6        29.40F WCI   6
PINE RIDGE     CLOUDY    31  23  72 W6        29.42S WCI  25
SPEARFISH      FAIR      32  21  64 W9        29.42F WCI  24
WINNER         FAIR      33  30  88 SW9       29.41F WCI  25
$$

SDZ004>011-016>023-039-040-201100-
NORTHEAST SOUTH DAKOTA

CITY           SKY/WX    TMP DP  RH WIND       PRES   REMARKS
ABERDEEN       CLOUDY    34  32  92 S9        29.47F FOG     WCI  27
WATERTOWN      CLOUDY    35  34  96 SE12      29.49F FOG     WCI  27
BROOKINGS      CLOUDY    35  34  96 SE10      29.51F FOG     WCI  27
SISSETON         N/A     34  34 100 SE10      29.52F WCI  26
$$

SDZ017-020-022-023-036>040-048>070-201100-
SOUTHEAST SOUTH DAKOTA

CITY           SKY/WX    TMP DP  RH WIND       PRES   REMARKS
SIOUX FALLS    CLOUDY    37  37 100 S7        29.52F FOG
HURON          CLOUDY    37  37 100 SE9       29.46F
CHAMBERLAIN    CLOUDY    37  35  96 S7        29.43S
MITCHELL       CLOUDY    38  38 100 S8        29.47F
YANKTON        CLOUDY    37  36  93 SE9       29.50F
$$

ABBREVIATIONS USED IN REMARKS
   TC - TEMPERATURE IN CELSIUS
  WCI - WIND CHILL INDEX
   HX - HEAT INDEX
  VSB - VISIBILITY




USA.gov is the U.S. government's official web portal to all federal, state and local government web resources and services.